Location: Friaudour
(46.0460°N, 1.2873°E)
Time: 20:17:10
(UTC+00:00)

Meteor 1-25 Rocket - Pass Details

Date: 14 July 2020
Orbit: 837 x 890 km, 81.2° (Epoch: 14 August)

Event Time Altitude Azimuth Distance (km) Brightness Sun altitude
Exits shadow 00:47:43 44° 174° (S) 1,160 4.4 -21.5°
Maximum altitude 00:49:33 76° 98° (E) 873 4.2 -21.4°
Drops below altitude 10° 00:55:08 10° 14° (NNE) 2,466 7.8 -21.2°
Sets 00:57:32 0° 13° (NNE) 3,403 8.9 -21.1°
